[[[{"header":{"parameterUnit":"kt","parameterCategory":2,"dx":1,"dy":1,"la1":30.253999710083008,"la2":30.299108505249023,"lo1":-89.0895004272461,"lo2":-89.04439544677734,"nx":28,"ny":28,"refTime":"2022-10-03T21:00:00:Z","depth":0,"parameterNumber":1,"parameterNumberName":"U-component_of_WINDS"},"data":[-6.8066,-6.8407,-6.847,-6.889,-6.9018,-6.9318,-6.9446,-6.9618,-6.9772,-7.014,-7.0363,-7.0465,-7.0647,-7.0933,-7.1181,-7.1221,-7.1323,-7.1398,-7.1434,-7.1036,-7.0985,-7.0937,-7.0859,-7.1419,-7.1419,-7.1837,-7.1841,-7.1844,-6.7773,-6.7902,-6.8141,-6.8417,-6.8624,-6.859,-6.8808,-6.8984,-6.9254,-6.9446,-6.9669,-6.9999,-7.0269,-7.0429,-7.0701,-7.0867,-7.0868,-7.0936,-7.0926,-7.0956,-7.0533,-7.0449,-7.0931,-7.0931,-7.0931,-7.093,-7.093,-7.093,-6.7256,-6.7458,-6.766,-6.7921,-6.8077,-6.8262,-6.8467,-6.8584,-6.8821,-6.9109,-6.9139,-6.9447,-6.9654,-7.0013,-7.015,-7.0395,-7.0332,-7.0427,-7.0452,-7.0476,-7.0494,-6.9887,-7.0444,-7.0443,-7.0442,-7.0441,-7.044,0,-6.6898,-6.6936,-6.7169,-6.7422,-6.7616,-6.7819,-6.8016,-6.8145,-6.825,-6.8442,-6.8727,-6.8902,-6.925,-6.9527,-6.9796,-6.992,-6.9908,-6.9913,-6.998,-6.9971,-6.9928,-6.9958,-6.9267,-6.9897,-6.9893,-6.9889,-6.9887,-6.9885,-6.6383,-6.661,-6.6851,-6.7007,-6.7129,-6.7379,-6.7542,-6.7617,-6.7787,-6.8043,-6.822,-6.8496,-6.8722,-6.9171,-6.9309,-6.9571,-6.9568,-6.9802,-6.9608,-6.9589,-6.9577,-6.9563,-6.9588,-6.9839,-6.9845,-6.9849,-6.9853,0,-6.6089,-6.6188,-6.656,-6.6776,-6.6838,-6.7073,-6.726,-6.7466,-6.7556,-6.7854,-6.7927,-6.8073,-6.8352,-6.8453,-6.8793,-6.8838,-6.9236,-6.9225,-6.9165,-6.917,-6.9392,-6.9371,-7.0088,-7.0188,-6.9606,-6.9611,-6.9615,0,-6.569,-6.5985,-6.6117,-6.6327,-6.6658,-6.6724,-6.7051,-6.7161,-6.7337,-6.7571,-6.7569,-6.779,-6.7883,-6.8121,-6.8187,-6.8529,-6.8593,-6.8649,-6.8663,-6.8651,-6.8644,-6.8745,-6.8719,-6.8683,-6.8679,-6.8676,-6.8673,0,-6.522,-6.5634,-6.5975,-6.6086,-6.6347,-6.6507,-6.6623,-6.6819,-6.6978,-6.7201,-6.7306,-6.7562,-6.7703,-6.7903,-6.7985,-6.785,-6.8405,-6.8236,-6.8463,-6.8461,-6.8582,-6.8574,-6.9182,-6.8668,-6.8667,-6.8666,-6.8664,0,-6.4913,-6.5132,-6.5611,-6.5828,-6.5934,-6.6159,-6.6413,-6.6629,-6.6836,-6.6891,-6.7067,-6.7078,-6.7382,-6.7208,-6.7629,-6.743,-6.7571,-6.7651,-6.7669,-6.7705,-6.7507,-6.784,-6.8407,-6.8471,-6.7735,-6.7728,-6.7721,0,-6.435,-6.4857,-6.4916,-6.537,-6.5618,-6.5598,-6.585,-6.6032,-6.6125,-6.6352,-6.6456,-6.6715,-6.6606,-6.6701,-6.6896,-6.7016,-6.7275,-6.6984,-6.7319,-6.733,-6.7266,-6.7787,-6.7847,-6.8271,-6.7623,-6.7633,-6.7641,0,-6.3924,-6.4233,-6.431,-6.4439,-6.4687,-6.4894,-6.5183,-6.5452,-6.56,-6.5803,-6.6051,-6.6415,-6.6349,-6.6506,-6.6541,-6.674,-6.7102,-6.6642,-6.6649,-6.6725,-6.758,-6.7637,-6.7707,-6.7083,-6.7095,-6.7105,-6.7563,0,-6.3445,-6.3709,-6.3919,-6.4201,-6.4376,-6.4664,-6.4764,-6.4936,-6.4951,-6.5041,-6.5405,-6.5581,-6.5858,-6.5962,-6.5979,-6.6399,-6.6345,-6.6271,-6.6111,-6.645,-6.6604,-6.6667,-6.5873,-6.5869,-6.5865,-6.5862,0,0,-6.2882,-6.3262,-6.3315,-6.3595,-6.3746,-6.3719,-6.4019,-6.4164,-6.4456,-6.4563,-6.4473,-6.5013,-6.516,-6.5592,-6.5705,-6.5816,-6.5903,-6.5779,-6.6287,-6.6334,-6.6377,-6.654,-6.6603,-6.5856,-6.5855,-6.5854,-6.5853,0,-6.2727,-6.2869,-6.3162,-6.3313,-6.3537,-6.3617,-6.3688,-6.3907,-6.3979,-6.4332,-6.4308,-6.4538,-6.4966,-6.5127,-6.5264,-6.5729,-6.57,-6.5805,-6.6021,-6.6248,-6.6299,-6.6345,-6.6515,-6.6575,-6.5844,-6.5845,-6.5845,0,-6.2328,-6.2486,-6.2637,-6.2974,-6.3121,-6.3377,-6.3231,-6.3506,-6.3697,-6.3657,-6.4008,-6.412,-6.4342,-6.4734,-6.4914,-6.4838,-6.551,-6.5314,-6.5339,-6.5362,-6.5587,-6.5649,-6.5703,-6.498,-6.4977,-6.4974,0,0,-6.218,-6.2425,-6.2617,-6.2948,-6.3042,-6.3165,-6.331,-6.3339,-6.3535,-6.3614,-6.3756,-6.3951,-6.4201,-6.4365,-6.4604,-6.502,-6.5074,-6.5203,-6.5244,-6.5277,-6.5318,-6.5551,-6.5612,-6.4961,-6.496,-6.496,0,0,-6.2111,-6.2345,-6.2324,-6.2719,-6.2905,-6.3118,-6.3318,-6.3298,-6.3523,-6.3501,-6.3567,-6.3621,-6.3989,-6.4101,-6.3915,-6.455,-6.4388,-6.4435,-6.4464,-6.4517,-6.4557,-6.4524,-6.3793,0,0,0,0,0,-6.2002,-6.2316,-6.2294,-6.2374,-6.2801,-6.313,-6.3185,-6.3244,-6.3128,-6.3286,-6.3402,-6.3359,-6.4014,-6.3851,-6.3932,-6.414,-6.4793,-6.4823,-6.4851,-6.4986,-6.504,-6.5086,0,0,0,0,0,0,-6.2034,-6.2132,-6.2286,-6.251,-6.2607,-6.3119,-6.2936,-6.2961,-6.3113,-6.3099,-6.3338,-6.3366,-6.3425,-6.3813,-6.3886,-6.4082,-6.3768,-6.4805,-6.483,-6.4853,-6.5005,-6.5049,-6.5087,0,0,0,0,0,-6.206,-6.2139,-6.2807,-6.2507,-6.2591,-6.2744,-6.2925,-6.2944,-6.3063,-6.3242,-6.3269,-6.3093,-6.3429,-6.3494,-6.3857,-6.4047,-6.3719,-6.3746,-6.4821,-6.4841,-6.4859,-6.5026,0,0,0,0,0,0,-6.2079,-6.2161,-6.2826,-6.2853,-6.2391,-6.2716,-6.2768,-6.2929,-6.3197,-6.3227,-6.2999,-6.2985,-6.3435,-6.3485,-6.3535,-6.4032,-6.3678,-6.3706,-6.3722,-6.4836,-6.4852,-6.4866,0,0,0,0,0,0,-6.2118,-6.2185,-6.284,-6.2691,-6.2702,-6.2691,-6.2737,-6.3054,-6.3201,-6.2939,-6.2936,-6.299,-6.3361,-6.348,-6.3519,-6.4011,-6.3647,-6.3673,-6.3691,-6.3703,-6.4849,-6.4861,0,0,0,0,0,0,-6.2147,-6.2204,-6.2684,-6.2693,-6.2702,-6.302,-6.2972,-6.3407,-6.3069,-6.2928,-6.304,-6.3027,-6.3358,-6.3398,-6.3508,-6.3984,-6.4004,-6.3648,-6.3666,-6.3678,-6.3687,0,0,0,0,0,0,0,-6.2171,-6.1776,-6.266,-6.2694,-6.2702,-6.3111,-6.3119,-6.3127,-6.3066,-6.3055,-6.3043,-6.3033,-6.3498,-6.3527,-6.3556,-6.3962,0,0,-6.3645,-6.3658,0,0,0,0,0,0,0,0,-6.1753,-6.177,-6.2661,-6.2666,-6.2672,-6.3113,-6.3119,-6.3125,-6.3064,-6.3055,-6.3046,-6.3037,-6.3506,-6.3529,-6.3553,0,0,0,0,0,0,0,0,0,0,0,0,0,0,0,-6.2661,-6.2666,0,-6.3113,-6.3119,-6.3124,-6.3063,-6.3055,-6.3048,-6.3041,-6.3512,-6.3531,-6.3551,0,0,0,0,0,0,0,0,0,0,0,0,0,0,0,0,0,0,0,0,0,0,0,0,0,0,0,0,0,0,0,0,0,0,0,0,0,0,0,0,0,0,0,0,0,0,0,0,0,0,0,0,0,0,0,0,0,0,0,0,0,0,0,0,0,0,0,0,0]}],[{"header":{"parameterUnit":"kt","parameterCategory":2,"dx":1,"dy":1,"la1":30.253999710083008,"la2":30.299108505249023,"lo1":-89.0895004272461,"lo2":-89.04439544677734,"nx":28,"ny":28,"refTime":"2022-10-03T21:00:00:Z","depth":0,"parameterNumber":2,"parameterNumberName":"V-component_of_WINDS"},"data":[-4.2942,-4.2852,-4.2773,-4.2629,-4.2533,-4.2418,-4.235,-4.2251,-4.2151,-4.1996,-4.189,-4.1794,-4.1653,-4.1499,-4.1374,-4.1331,-4.1282,-4.1307,-4.1251,-4.1222,-4.1212,-4.1202,-4.1222,-4.1299,-4.1299,-4.1294,-4.1294,-4.1294,-4.292,-4.2827,-4.273,-4.2582,-4.2495,-4.2423,-4.2295,-4.2224,-4.212,-4.1996,-4.1889,-4.1742,-4.1613,-4.146,-4.1318,-4.1262,-4.1216,-4.1229,-4.123,-4.1208,-4.1174,-4.1196,-4.1269,-4.1269,-4.1269,-4.1269,-4.1269,-4.1269,-4.2858,-4.2807,-4.2674,-4.2566,-4.2469,-4.2368,-4.2302,-4.219,-4.2087,-4.194,-4.1859,-4.1736,-4.159,-4.1377,-4.1284,-4.1178,-4.1147,-4.1133,-4.1128,-4.1126,-4.1135,-4.1147,-4.115,-4.1149,-4.1148,-4.1148,-4.1148,0,-4.2787,-4.2726,-4.2629,-4.2507,-4.2424,-4.232,-4.221,-4.2166,-4.2,-4.1921,-4.1799,-4.1713,-4.1539,-4.1408,-4.1256,-4.1159,-4.1068,-4.105,-4.1039,-4.1076,-4.1128,-4.1095,-4.104,-4.105,-4.1049,-4.1048,-4.1047,-4.1047,-4.2715,-4.2668,-4.249,-4.2431,-4.2353,-4.226,-4.2186,-4.2045,-4.1971,-4.1809,-4.1766,-4.1636,-4.1525,-4.1334,-4.1192,-4.1058,-4.1012,-4.1025,-4.0991,-4.1028,-4.1006,-4.1011,-4.1001,-4.1034,-4.1036,-4.1037,-4.1038,0,-4.2681,-4.2555,-4.2455,-4.2282,-4.2236,-4.219,-4.2037,-4.1976,-4.1873,-4.1773,-4.174,-4.1574,-4.1452,-4.1309,-4.1139,-4.1066,-4.0969,-4.0929,-4.1018,-4.1001,-4.0995,-4.0996,-4.1007,-4.0999,-4.0921,-4.0922,-4.0923,0,-4.2569,-4.251,-4.2324,-4.2273,-4.22,-4.2062,-4.1991,-4.1896,-4.1774,-4.1694,-4.1574,-4.15,-4.1329,-4.1231,-4.1124,-4.102,-4.0989,-4.0926,-4.0898,-4.0936,-4.0944,-4.0889,-4.0885,-4.0841,-4.0841,-4.0841,-4.0841,0,-4.2527,-4.2361,-4.2277,-4.2218,-4.2027,-4.1988,-4.1905,-4.1769,-4.1697,-4.1579,-4.1529,-4.14,-4.1329,-4.1226,-4.1092,-4.1074,-4.0963,-4.091,-4.0897,-4.09,-4.088,-4.0883,-4.093,-4.0841,-4.0842,-4.0842,-4.0842,0,-4.2416,-4.2312,-4.2212,-4.2048,-4.2009,-4.1953,-4.1822,-4.1741,-4.1605,-4.1537,-4.1442,-4.1344,-4.1248,-4.1204,-4.1064,-4.1079,-4.1012,-4.0944,-4.094,-4.0921,-4.0877,-4.092,-4.0983,-4.0982,-4.0903,-4.0904,-4.0904,0,-4.2401,-4.2268,-4.2152,-4.2057,-4.1976,-4.1849,-4.1781,-4.1668,-4.1572,-4.1482,-4.1372,-4.1271,-4.121,-4.1158,-4.1107,-4.0988,-4.0969,-4.0987,-4.0845,-4.0842,-4.0885,-4.0941,-4.0986,-4.0985,-4.0909,-4.0908,-4.0908,0,-4.2374,-4.2151,-4.2143,-4.2069,-4.1904,-4.1835,-4.1759,-4.1631,-4.1579,-4.1465,-4.1392,-4.1247,-4.1192,-4.1109,-4.1016,-4.0971,-4.0977,-4.0919,-4.0913,-4.0931,-4.0901,-4.0943,-4.0944,-4.0922,-4.0921,-4.0921,-4.0912,0,-4.2228,-4.2148,-4.2122,-4.1969,-4.1895,-4.1831,-4.169,-4.1629,-4.155,-4.1452,-4.1344,-4.1213,-4.1077,-4.1043,-4.0964,-4.0911,-4.0896,-4.0841,-4.0787,-4.0828,-4.082,-4.0818,-4.081,-4.0807,-4.0805,-4.0803,0,0,-4.2242,-4.2126,-4.2003,-4.193,-4.186,-4.1732,-4.1674,-4.1589,-4.1423,-4.1373,-4.1344,-4.1121,-4.1016,-4.0899,-4.09,-4.0847,-4.0821,-4.0815,-4.081,-4.0812,-4.0813,-4.0808,-4.0808,-4.08,-4.0799,-4.0798,-4.0798,0,-4.2162,-4.2072,-4.2022,-4.193,-4.1792,-4.1694,-4.1682,-4.152,-4.1455,-4.1354,-4.1244,-4.1161,-4.0991,-4.0891,-4.0818,-4.0826,-4.0744,-4.0795,-4.0847,-4.0795,-4.08,-4.0803,-4.08,-4.0801,-4.0793,-4.0793,-4.0793,0,-4.2107,-4.1994,-4.1957,-4.1799,-4.1707,-4.1627,-4.1538,-4.146,-4.1396,-4.1255,-4.1156,-4.1064,-4.092,-4.0832,-4.0786,-4.0757,-4.0683,-4.0683,-4.0691,-4.0682,-4.0624,-4.063,-4.0635,-4.0571,-4.0571,-4.0571,0,0,-4.2056,-4.1983,-4.1817,-4.1771,-4.1721,-4.1576,-4.152,-4.1437,-4.1317,-4.127,-4.115,-4.1032,-4.0929,-4.0865,-4.0761,-4.0686,-4.0641,-4.0662,-4.0672,-4.0681,-4.0678,-4.0622,-4.0628,-4.0571,-4.0571,-4.0571,0,0,-4.2029,-4.1838,-4.1783,-4.1714,-4.1607,-4.1436,-4.1411,-4.1336,-4.1232,-4.1223,-4.1073,-4.1035,-4.095,-4.0863,-4.0872,-4.0738,-4.0689,-4.0684,-4.0799,-4.081,-4.082,-4.0842,-4.0759,0,0,0,0,0,-4.1877,-4.1862,-4.1814,-4.1782,-4.1582,-4.1464,-4.1436,-4.1317,-4.1284,-4.1266,-4.1153,-4.1073,-4.0836,-4.084,-4.0807,-4.0798,-4.0563,-4.0565,-4.0566,-4.0696,-4.0709,-4.072,0,0,0,0,0,0,-4.1864,-4.1826,-4.1814,-4.1646,-4.1599,-4.1464,-4.1382,-4.1348,-4.1283,-4.127,-4.1098,-4.1068,-4.0959,-4.0849,-4.0821,-4.0815,-4.0768,-4.0564,-4.0565,-4.0566,-4.07,-4.0711,-4.072,0,0,0,0,0,-4.1852,-4.1822,-4.1533,-4.1645,-4.1604,-4.1442,-4.1381,-4.1353,-4.13,-4.1128,-4.1096,-4.1216,-4.0963,-4.093,-4.0832,-4.0831,-4.0787,-4.0777,-4.0564,-4.0565,-4.0566,-4.0706,0,0,0,0,0,0,-4.1844,-4.1791,-4.1522,-4.1505,-4.1644,-4.1446,-4.1412,-4.1358,-4.1159,-4.1127,-4.1239,-4.123,-4.0964,-4.0939,-4.0914,-4.0843,-4.0802,-4.0792,-4.0786,-4.0565,-4.0566,-4.0566,0,0,0,0,0,0,-4.1807,-4.1778,-4.1513,-4.1519,-4.1501,-4.1452,-4.1421,-4.132,-4.1158,-4.128,-4.1267,-4.1237,-4.0998,-4.0945,-4.0926,-4.0772,-4.0814,-4.0804,-4.0797,-4.0793,-4.0566,-4.0566,0,0,0,0,0,0,-4.1793,-4.1767,-4.1523,-4.1509,-4.1494,-4.1292,-4.1359,-4.1158,-4.1171,-4.129,-4.1168,-4.1167,-4.1006,-4.0984,-4.0934,-4.079,-4.0777,-4.0814,-4.0807,-4.0802,-4.0799,0,0,0,0,0,0,0,-4.1781,-4.1979,-4.1625,-4.1501,-4.1487,-4.1347,-4.1342,-4.1338,-4.1171,-4.1169,-4.1168,-4.1167,-4.087,-4.0859,-4.0848,-4.0804,0,0,-4.0815,-4.081,0,0,0,0,0,0,0,0,-4.1987,-4.1981,-4.1624,-4.1621,-4.1617,-4.1346,-4.1342,-4.1339,-4.117,-4.1169,-4.1168,-4.1168,-4.0867,-4.0858,-4.085,0,0,0,0,0,0,0,0,0,0,0,0,0,0,0,-4.1624,-4.1621,0,-4.1346,-4.1343,-4.1339,-4.117,-4.1169,-4.1169,-4.1168,-4.0865,-4.0857,-4.085,0,0,0,0,0,0,0,0,0,0,0,0,0,0,0,0,0,0,0,0,0,0,0,0,0,0,0,0,0,0,0,0,0,0,0,0,0,0,0,0,0,0,0,0,0,0,0,0,0,0,0,0,0,0,0,0,0,0,0,0,0,0,0,0,0,0,0,0,0]}]]]